Terminal Aerodrome Forecast
Issued by NWS

Home | Current Version | Previous Version | Graphics & Text | Print | Product List | Glossary Off
Versions: 1 2 3 4 5 6 7 8 9 10 11 12 13 14 15 16 17 18 19 20

000
FTUS43 KDDC 230932 AAC
TAFHYS
TAF AMD
KHYS 230932Z 2310/2406 VRB05KT 1/2SM FG BKN010
      TEMPO 2312/2315 BKN006
     FM231900 16006KT P6SM SCT035=

USA.gov is the U.S. government's official web portal to all federal, state and local government web resources and services.